Regional Weather Roundup
Issued by NWS

Home | Current Version | Previous Version | Graphics & Text | Print | Product List | Glossary On
Versions: 1 2 3 4 5 6 7 8 9 10 11 12 13 14 15 16 17 18 19 20 21 22 23 24 25 26 27 28 29 30 31 32 33 34 35 36 37 38 39 40 41 42 43 44 45 46 47 48 49 50
000
ASUS43 KIND 271009
RWRIN

WEATHER ROUNDUP FOR INDIANA
NATIONAL WEATHER SERVICE INDIANAPOLIS IN
600 AM EDT WED AUG 27 2014

NOTE: "FAIR" INDICATES FEW OR NO CLOUDS BELOW 12,000 FEET WITH NO
SIGNIFICANT WEATHER AND/OR OBSTRUCTIONS TO VISIBILITY.

* - STATION DOES NOT REPORT WEATHER SUCH AS PRECIPITATION OR FOG.

+ - STATION NOT QUALITY CONTROLLED BY THE NATIONAL WEATHER SERVICE.
    USE DATA WITH CAUTION...ESPECIALLY DEWPOINT AND RELATIVE
    HUMIDITY OBSERVATIONS.

INZ001>003-010>013-019-020-271100-
NORTHWEST INDIANA

CITY           SKY/WX    TMP DP  RH WIND       PRES   REMARKS
GARY /AIRPORT/ MOCLDY    70  66  88 NE3       30.12S
KNOX *+        CLOUDY    66  64  94 CALM      30.10F
LA PORTE +     MOCLDY    64  64 100 NE3       30.12S
MICHIGAN CITY+ MOCLDY    63  63 100 CALM      30.12S FOG
MONTICELLO +   MOCLDY    69  68  99 NE5       30.08S FOG
RENSSELAER +   CLOUDY    70  68  94 N6        30.10S
VALPARAISO     CLOUDY    67  63  87 N3        30.12S

$$

LMZ046-743>745-271100-
SOUTHERN LAKE MICHIGAN

STATION/POSITION TIME  TEMP WIND        PRES
                       AIR  DIR/SP/G
                 (UTC) (F)  (DEG/KT/KT) (MB)
MICHIGAN CITY    1000   68   50/  4/  5   N/A

$$

INZ004-005-014>016-021>024-271100-
NORTH CENTRAL INDIANA

CITY           SKY/WX    TMP DP  RH WIND       PRES   REMARKS
GOSHEN         MOCLDY    67  63  87 N3        30.12R
LOGANSPORT +   FOG       66  64  94 NE3       30.09S VSB 1
PERU/GRISSOM   PTCLDY    68 N/A N/A CALM      30.09S HAZE
ROCHESTER +    MOCLDY    70  70 100 N5        30.11S FOG
SOUTH BEND     CLOUDY    66  63  90 NE3       30.12R
WARSAW +       CLOUDY    66  66 100 N3        30.11R FOG

$$

INZ006>009-017-018-025>027-271100-
NORTHEAST INDIANA

CITY           SKY/WX    TMP DP  RH WIND       PRES   REMARKS
ANGOLA *+      CLEAR     64  59  82 CALM      30.11R
AUBURN +       PTCLDY    70  66  88 CALM      30.11R
FORT WAYNE     CLOUDY    70  68  93 N6        30.10S FOG
HUNTINGTON +   CLOUDY    69  69  99 NE3       30.09S FOG

$$

INZ028-029-035-036-043>045-051>053-271100-
WEST CENTRAL INDIANA

CITY           SKY/WX    TMP DP  RH WIND       PRES   REMARKS
GREENCASTLE +  MOCLDY    68  68 100 CALM      30.09F
LAFAYETTE      PTCLDY    66  66 100 CALM      30.08S
TERRE HAUTE    MOCLDY    69  67  93 CALM      30.08S

$$

INZ030>032-037>040-046>048-054>057-064-065-271100-
CENTRAL INDIANA

CITY           SKY/WX    TMP DP  RH WIND       PRES   REMARKS
CP ATTERBURY + MOCLDY    66  64  94 CALM      30.10S FOG
FRANKFORT +    PTCLDY   N/A N/A N/A N3        30.10S
INDIANAPOLIS   CLOUDY    73  69  87 CALM      30.08S
-EAGLE CREEK   MOCLDY    72  68  87 CALM      30.08F
KOKOMO *+      PTCLDY    66  63  88 CALM      30.09S
MARION +       PTCLDY    66  65  97 CALM      30.10S FOG
MT COMFORT *+    N/A     68 N/A N/A CALM      30.10R VSB 1/2
SHELBYVILLE    MOCLDY    70  67  90 S3        30.09S
ZIONSVILLE +   MOCLDY    68  65  90 CALM      30.10S FOG

$$

INZ033-034-041-042-049-050-058-059-271100-
EAST CENTRAL INDIANA

CITY           SKY/WX    TMP DP  RH WIND       PRES   REMARKS
MUNCIE         MOCLDY    69  67  93 CALM      30.09S

$$

INZ060-061-067>069-081>083-085>088-271100-
SOUTHWEST INDIANA

CITY           SKY/WX    TMP DP  RH WIND       PRES   REMARKS
EVANSVILLE     CLEAR     74  71  91 CALM      30.06S
WASHINGTON +   PTCLDY    71  71 100 CALM      30.08R FOG

$$

INZ062-063-066-070>080-084-089>092-271100-
SOUTH CENTRAL AND SOUTHEAST INDIANA

CITY           SKY/WX    TMP DP  RH WIND       PRES   REMARKS
BLOOMINGTON    PTCLDY    68  67  96 CALM      30.10S FOG

$$




USA.gov is the U.S. government's official web portal to all federal, state and local government web resources and services.